FENGYUN 1C DEB

Satellite information

Favourite Embed

Satellite Type and Status

DEBRISIN ORBIT

Key statistics

Satellite FENGYUN 1C DEB at a glance.

Uptime

9556

Days in orbit

Revolutions

≈ 13.8

Per day

Orbit

SSO

Sun Synchronous Orbit

Inclination

98.4

Latest

Satellite identification and parameters

Extended collection of information and parameters for FENGYUN 1C DEB.

Object identification

Identified? True

Debris? True

Object name: FENGYUN 1C DEB

International designator: 1999-025FB

Object number (NORAD): 29857

Object ID (CCSDS): 29857

Country: PEOPLES REPUBLIC OF CHINA (PRC)

Current information (Y/N): Y

RCS size: SMALL

Orbital parameters

Period: 104.255 minutes

Inclination: 98.4285 deg

SMA: 7337.679 km

Apoapsis: 1102.07 km

Periapsis: 817.018 km

RAAN: 212.172 deg

Eccentricy: 0.0194239

Argument of periapsis: 7.7446 deg

Mean anomaly: 352.6636 deg

Mean motion: 13.81225855 rev/day

Mean motion (dot): 0.00000981 rev/day2

B* drag term: 0.00083246 1/REarth

Two-line elements (TLE)

Creation date: July 7, 2025, 6:34 p.m.

Reference frame: TEME

Reference center: EARTH

Epoch: July 7, 2025, 12:51 a.m. UTC

TLE line 0: 0 FENGYUN 1C DEB

TLE line 1: 1 29857U 99025FB 25188.03573051 .00000981 00000-0 83246-3 0 9998

TLE line 2: 2 29857 98.4285 212.1720 0194239 7.7446 352.6636 13.81225855925849

Live tracking on map

Real-time ground track for satellite FENGYUN 1C DEB.

In-orbit conjunctions

A list of the most updated potential collisions computed for object FENGYUN 1C DEB.

Target Orbit TCA Probability of collision Miss distance Type
FENGYUN 1C DEB SSO 2025-02-08 09:39:19 0.0004223641 60.0 (m) DEBRIS
SS 2 LEO 2024-11-16 04:38:29 0.0003976324 497.0 (m) PAYLOAD

Associated space launch

Chinese polar orbiting meteorological satellite

FENGYUN 1C DEB was lifted into orbit during the mission ‘Long March 4B | Feng Yun 1C’, on board a Long March 4B space rocket.

The launch took place on May 10, 1999, 1:33 a.m. from Launch Complex 7.

For more information about the launch, click the button.

Launch to space Long March 4B | Feng Yun 1C
Long March 4B | Feng Yun 1C

Agency: N/A

Status: Launch Successful

Launch date: May 10, 1999, 1:33 a.m. UTC

Rocket: Long March 4B

Launch pad: Launch Complex 7

Location: Taiyuan Satellite Launch Center, People's Republic of China

...

Latest news about this satellite

There are no fresh news available about this satellite. Check back as we update our databases every day.


Newsletter sign-up

Weekly statistics, charts and insights to help you stay on top of the space industry.